Tracking 28091 objects as of 29-Sep-2023
HD Live streaming from Space Station
objects crossing your sky now

SAKURA 2A (CS-2A)

Track SAKURA 2A (CS-2A) now!
SAKURA 2A (CS-2A) is classified as:


NORAD ID: 13782
Int'l Code: 1983-006A
Perigee: 36,001.2 km
Apogee: 36,073.2 km
Inclination: 11.9 °
Period: 1,448.6 minutes
Semi major axis: 42408 km
RCS: 5.8102 m2 (large)
Launch date: February 4, 1983
Source: Japan (JPN)
Launch site: TANEGASHIMA SPACE CENTER (TNSTA)
Your satellite tracking list
Your tracking list is empty




NASA's NSSDC Master Catalog

Two Line Element Set (TLE):
1 13782U 83006A   23272.41085810 -.00000079  00000-0  00000+0 0  9997
2 13782  11.9201 327.3376 0008486 284.0496  92.4118  0.99409472118039
Source of the keplerian elements: AFSPC